Home   Weather   Pensacola   Past weeks

Flag for USA Past Weather in Pensacola, Florida, USA — Yesterday and Last 2 Weeks

Now
76 °F

Clear.


Feels Like: 76 °F
Forecast: 72 / 86 °F
Wind: 5 mph from Northeast

Location: Pensacola Regional Airport

Current Time: Sep 26, 2016 at 7:21:02 PM

Latest Report: Sep 26, 2016 at 6:53 PM


Visibility: 10 mi

Pressure: 29.96 "Hg

Humidity: 91%

Dew Point: 73 °F

Location of PensacolaLocation

Past Weather in Pensacola — Graph

°F

Pensacola Temperature Yesterday

Maximum temperature yesterday: 94 °F (at 12:53 PM)
Minimum temperature yesterday: 76 °F (at 11:53 PM)
Average temperature yesterday: 82 °F

High & Low Weather Summary for the Past Weeks

 TemperatureHumidityPressure
High96 °F (Sep 24, 3:53 PM)94% (Sep 17, 7:53 AM)30.08 "Hg (Sep 17, 7:53 AM)
Low74 °F (Sep 12, 3:53 AM)37% (Sep 24, 3:53 PM)29.93 "Hg (Sep 19, 3:53 PM)
Average82 °F75%30.01 "Hg
* Reported Sep 11 5:53 PM — Sep 26 5:53 PM, Pensacola, Weather by CustomWeather, © 2016

Note: Actual official high and low records may vary slightly from our data, if they occured in-between our weather recording intervals... More about our weather records

Advertising

Pensacola Weather History for the Previous 24 Hours

Scroll right to see more
 ConditionsComfort  
Time TempWeatherWind HumidityBarometerVisibility
5:53 PM
Mon, Sep 26
78 °FClear.3 mph84%29.94 "Hg10 mi
4:53 PM78 °FScattered clouds.3 mph79%29.94 "Hg10 mi
3:53 PM76 °FLight rain. Scattered clouds.7 mph80%29.96 "Hg10 mi
2:53 PM76 °FLight rain. Mostly cloudy.8 mph80%29.98 "Hg10 mi
1:53 PM80 °FThunderstorms. Partly sunny.12 mph62%29.97 "Hg10 mi
12:53 PM88 °FThundershowers. Sunny.10 mph59%29.98 "Hg10 mi
11:53 AM86 °FScattered clouds.12 mph67%30.01 "Hg10 mi
10:53 AM85 °FThundershowers. Scattered clouds.No wind72%30.02 "Hg10 mi
9:53 AM80 °FSunny.No wind76%30.03 "Hg10 mi
8:53 AM78 °FSunny.No wind79%30.01 "Hg10 mi
7:53 AM76 °FSunny.No wind80%30.01 "Hg10 mi
6:53 AM74 °FSunny.3 mph85%30.01 "Hg10 mi
5:53 AM74 °FSunny.3 mph85%30.00 "Hg10 mi
4:53 AM75 °FClear.3 mph85%29.98 "Hg10 mi
3:53 AM75 °FClear.5 mph88%29.98 "Hg10 mi
2:53 AM75 °FClear.3 mph88%29.98 "Hg10 mi
1:53 AM76 °FClear.5 mph88%29.99 "Hg10 mi
12:53 AM76 °FClear.6 mph85%30.01 "Hg10 mi
11:53 PM
Sun, Sep 25
76 °FClear.No wind82%30.00 "Hg10 mi
10:53 PM77 °FClear.No wind79%30.01 "Hg10 mi
9:53 PM78 °FClear.No wind76%30.01 "Hg10 mi
8:53 PM77 °FClear.6 mph79%30.02 "Hg10 mi
7:53 PM78 °FClear.5 mph79%30.00 "Hg10 mi
Weather by CustomWeather, © 2016

See weather overviewHow to use our weather pages